Precipitable_Water
0.27 0.26 0.25 0.25 0.25 0.25 0.26 0.27 0.29 0.30 0.31 0.31 0.32 0.33 0.34 0.33 0.33 0.33 0.33 0.35 0.36 0.37 0.38 0.40 0.38 0.42 0.49 0.58 0.64 0.64 0.64 0.72 0.63 0.77 0.80 0.81 0.76 0.77 0.80 0.87 0.89 0.88 0.92
0.25 0.25 0.24 0.24 0.24 0.24 0.25 0.26 0.28 0.29 0.30 0.31 0.32 0.33 0.33 0.34 0.34 0.33 0.32 0.34 0.34 0.35 0.35 0.37 0.35 0.37 0.39 0.48 0.56 0.59 0.61 0.66 0.65 0.63 0.77 0.75 0.74 0.75 0.74 0.78 0.82 0.85 0.85
0.24 0.23 0.23 0.23 0.23 0.24 0.25 0.26 0.28 0.29 0.30 0.30 0.31 0.31 0.31 0.32 0.33 0.33 0.33 0.32 0.33 0.34 0.34 0.33 0.36 0.34 0.34 0.38 0.44 0.54 0.61 0.63 0.63 0.62 0.68 0.76 0.73 0.72 0.68 0.73 0.77 0.79 0.81
0.22 0.22 0.22 0.22 0.23 0.23 0.24 0.26 0.28 0.29 0.30 0.30 0.30 0.30 0.31 0.31 0.31 0.32 0.32 0.32 0.32 0.33 0.36 0.35 0.36 0.35 0.33 0.34 0.38 0.48 0.57 0.61 0.64 0.60 0.61 0.66 0.69 0.67 0.66 0.64 0.68 0.72 0.71
0.21 0.21 0.21 0.22 0.23 0.23 0.24 0.25 0.27 0.29 0.30 0.30 0.30 0.30 0.30 0.30 0.30 0.30 0.31 0.31 0.31 0.31 0.33 0.37 0.39 0.38 0.36 0.36 0.37 0.42 0.50 0.58 0.63 0.61 0.56 0.59 0.55 0.62 0.57 0.64 0.63 0.66 0.67
0.20 0.20 0.21 0.21 0.21 0.22 0.23 0.24 0.26 0.28 0.29 0.29 0.29 0.29 0.29 0.30 0.31 0.32 0.32 0.32 0.31 0.31 0.31 0.33 0.36 0.38 0.37 0.38 0.37 0.39 0.47 0.51 0.57 0.59 0.57 0.54 0.56 0.64 0.63 0.63 0.62 0.60 0.54
0.19 0.19 0.19 0.20 0.20 0.21 0.22 0.24 0.26 0.28 0.29 0.30 0.29 0.29 0.29 0.30 0.32 0.33 0.33 0.33 0.32 0.32 0.32 0.32 0.33 0.35 0.38 0.37 0.38 0.39 0.42 0.53 0.61 0.64 0.61 0.58 0.58 0.67 0.64 0.60 0.64 0.60 0.61
0.17 0.17 0.19 0.19 0.19 0.21 0.22 0.23 0.25 0.28 0.29 0.30 0.30 0.31 0.31 0.32 0.33 0.34 0.35 0.35 0.34 0.33 0.32 0.32 0.32 0.33 0.36 0.36 0.36 0.37 0.38 0.46 0.58 0.66 0.65 0.69 0.70 0.73 0.71 0.66 0.64 0.67 0.71
0.17 0.17 0.18 0.19 0.19 0.20 0.21 0.22 0.25 0.28 0.30 0.31 0.32 0.32 0.32 0.33 0.35 0.36 0.37 0.36 0.34 0.33 0.34 0.35 0.34 0.33 0.35 0.36 0.35 0.33 0.33 0.40 0.58 0.68 0.71 0.78 0.71 0.78 0.74 0.67 0.59 0.61 0.59
0.17 0.18 0.19 0.20 0.20 0.20 0.21 0.22 0.25 0.29 0.31 0.32 0.32 0.34 0.35 0.35 0.37 0.38 0.39 0.38 0.34 0.34 0.35 0.36 0.37 0.37 0.37 0.38 0.37 0.35 0.31 0.38 0.52 0.62 0.69 0.73 0.75 0.75 0.73 0.71 0.66 0.60 0.63
0.18 0.18 0.18 0.19 0.19 0.20 0.21 0.24 0.26 0.30 0.32 0.33 0.33 0.35 0.36 0.37 0.38 0.40 0.40 0.39 0.37 0.35 0.34 0.35 0.37 0.39 0.39 0.40 0.41 0.39 0.35 0.43 0.51 0.59 0.63 0.68 0.71 0.70 0.72 0.71 0.73 0.68 0.66
0.17 0.17 0.18 0.19 0.20 0.21 0.22 0.25 0.28 0.31 0.31 0.32 0.33 0.34 0.36 0.38 0.40 0.40 0.42 0.42 0.42 0.38 0.36 0.38 0.39 0.40 0.40 0.41 0.42 0.43 0.43 0.48 0.50 0.52 0.60 0.62 0.65 0.66 0.68 0.69 0.74 0.72 0.77
0.17 0.17 0.18 0.19 0.20 0.22 0.23 0.24 0.28 0.31 0.31 0.32 0.32 0.32 0.33 0.37 0.41 0.43 0.44 0.43 0.43 0.40 0.41 0.41 0.43 0.43 0.43 0.43 0.44 0.46 0.49 0.46 0.46 0.51 0.56 0.60 0.64 0.69 0.68 0.68 0.71 0.71 0.71
0.17 0.18 0.19 0.19 0.20 0.22 0.25 0.27 0.29 0.30 0.31 0.31 0.31 0.31 0.34 0.38 0.40 0.43 0.43 0.43 0.43 0.42 0.43 0.45 0.46 0.47 0.49 0.50 0.51 0.53 0.50 0.52 0.52 0.55 0.58 0.61 0.63 0.64 0.65 0.68 0.66 0.65 0.64
0.18 0.19 0.19 0.20 0.21 0.23 0.25 0.28 0.30 0.32 0.33 0.32 0.33 0.35 0.35 0.36 0.40 0.44 0.44 0.43 0.44 0.45 0.47 0.48 0.49 0.51 0.51 0.54 0.55 0.56 0.58 0.57 0.60 0.63 0.63 0.62 0.61 0.62 0.62 0.65 0.64 0.63 0.59
0.18 0.19 0.20 0.21 0.22 0.23 0.25 0.29 0.32 0.34 0.35 0.37 0.39 0.40 0.41 0.44 0.46 0.47 0.47 0.48 0.50 0.52 0.50 0.49 0.50 0.52 0.52 0.55 0.57 0.59 0.61 0.62 0.62 0.63 0.62 0.61 0.59 0.59 0.59 0.60 0.60 0.57 0.51
0.20 0.21 0.22 0.22 0.23 0.24 0.27 0.28 0.28 0.32 0.34 0.36 0.39 0.42 0.44 0.46 0.47 0.49 0.50 0.50 0.51 0.51 0.48 0.49 0.49 0.50 0.52 0.54 0.56 0.58 0.58 0.60 0.63 0.62 0.61 0.59 0.59 0.58 0.58 0.55 0.50 0.46 0.42
0.22 0.23 0.23 0.24 0.25 0.26 0.28 0.29 0.30 0.30 0.30 0.33 0.39 0.42 0.45 0.46 0.47 0.48 0.49 0.49 0.47 0.49 0.49 0.49 0.49 0.50 0.52 0.53 0.54 0.56 0.58 0.59 0.59 0.59 0.59 0.58 0.58 0.56 0.51 0.47 0.43 0.39 0.35
0.23 0.24 0.25 0.26 0.26 0.28 0.28 0.29 0.30 0.31 0.31 0.33 0.38 0.41 0.45 0.46 0.47 0.47 0.48 0.46 0.46 0.46 0.49 0.50 0.51 0.51 0.53 0.54 0.55 0.57 0.58 0.58 0.58 0.58 0.57 0.57 0.55 0.50 0.45 0.41 0.37 0.32 0.28
0.25 0.26 0.26 0.26 0.27 0.28 0.29 0.29 0.30 0.31 0.31 0.34 0.37 0.39 0.43 0.44 0.42 0.43 0.45 0.46 0.47 0.48 0.49 0.50 0.51 0.52 0.53 0.54 0.55 0.56 0.56 0.56 0.56 0.56 0.55 0.51 0.47 0.42 0.38 0.35 0.31 0.26 0.23
0.25 0.25 0.26 0.26 0.27 0.28 0.29 0.30 0.31 0.31 0.32 0.35 0.38 0.42 0.44 0.42 0.42 0.43 0.44 0.45 0.46 0.48 0.49 0.50 0.51 0.52 0.53 0.54 0.55 0.55 0.55 0.55 0.54 0.51 0.47 0.43 0.40 0.37 0.34 0.30 0.26 0.23 0.23
0.25 0.25 0.26 0.26 0.28 0.28 0.29 0.31 0.32 0.32 0.34 0.37 0.39 0.43 0.44 0.43 0.42 0.43 0.44 0.45 0.47 0.49 0.50 0.51 0.51 0.52 0.53 0.53 0.54 0.54 0.53 0.50 0.47 0.44 0.41 0.38 0.35 0.31 0.28 0.25 0.24 0.25 0.26
0.25 0.25 0.26 0.27 0.28 0.29 0.30 0.32 0.32 0.33 0.36 0.38 0.40 0.41 0.41 0.41 0.42 0.42 0.43 0.45 0.46 0.48 0.49 0.50 0.50 0.51 0.52 0.53 0.54 0.51 0.48 0.45 0.42 0.39 0.35 0.32 0.28 0.27 0.26 0.26 0.27 0.27 0.28
0.25 0.25 0.26 0.27 0.28 0.29 0.30 0.31 0.33 0.34 0.38 0.39 0.39 0.40 0.40 0.41 0.41 0.42 0.43 0.45 0.46 0.47 0.48 0.49 0.49 0.50 0.50 0.48 0.45 0.42 0.40 0.39 0.37 0.34 0.31 0.28 0.28 0.28 0.29 0.29 0.29 0.30 0.30
0.25 0.25 0.26 0.26 0.27 0.28 0.29 0.31 0.32 0.34 0.37 0.38 0.38 0.39 0.40 0.40 0.41 0.42 0.43 0.44 0.45 0.45 0.46 0.45 0.44 0.42 0.41 0.40 0.39 0.38 0.37 0.35 0.33 0.32 0.31 0.31 0.30 0.31 0.31 0.31 0.31 0.30 0.29
0.24 0.25 0.25 0.26 0.27 0.28 0.29 0.30 0.32 0.33 0.35 0.37 0.38 0.38 0.39 0.39 0.40 0.41 0.42 0.43 0.43 0.42 0.42 0.41 0.41 0.40 0.39 0.38 0.37 0.36 0.35 0.34 0.33 0.34 0.34 0.34 0.33 0.33 0.32 0.31 0.30 0.29 0.26
Wind_Speed
42 40 38 36 35 33 32 30 29 28 28 28 28 27 27 28 29 30 30 31 32 33 34 34 34 35 36 34 36 37 39 37 34 32 32 30 30 29 29 30 31 31 31
41 38 37 35 34 32 30 29 28 27 27 26 26 27 27 27 28 28 29 30 31 32 33 34 34 34 35 36 35 35 37 37 35 33 32 31 30 30 29 28 27 28 28
39 37 36 34 33 31 31 30 29 28 27 26 26 26 27 27 28 29 29 30 31 32 32 33 35 35 35 35 35 35 35 36 37 36 31 31 30 29 29 29 28 28 26
37 36 35 34 33 32 31 30 30 29 29 29 28 28 28 28 28 29 30 30 31 31 33 33 34 35 35 35 35 35 34 34 35 35 35 32 30 29 29 28 27 27 25
37 36 35 34 33 33 32 32 32 32 32 31 31 31 30 29 29 29 29 31 31 31 32 33 34 35 36 35 35 36 34 34 32 34 33 33 31 29 29 29 28 27 25
37 36 35 34 34 34 34 34 34 34 33 33 33 33 32 31 31 31 31 31 31 32 32 33 34 35 36 37 37 38 38 36 35 32 34 33 32 30 29 29 29 28 26
37 36 36 35 36 36 36 37 36 35 35 34 34 33 33 32 32 32 31 31 31 32 33 33 33 33 35 36 37 37 37 38 39 37 33 33 32 31 30 30 31 30 28
37 37 36 37 38 39 38 38 36 35 35 34 33 32 30 29 30 31 32 32 32 33 33 34 35 35 35 35 35 36 37 37 38 38 38 34 34 34 33 32 32 30 29
38 38 39 40 41 40 39 38 37 36 34 33 31 29 28 27 28 29 30 31 32 32 33 33 34 35 35 36 36 36 36 37 37 37 36 35 35 32 32 30 31 31 29
40 41 42 42 41 41 40 39 36 34 32 30 29 28 28 27 27 27 27 27 29 30 31 32 33 34 35 36 36 36 36 35 34 34 34 34 34 33 32 32 33 34 30
43 43 42 42 42 41 39 36 33 30 29 28 29 28 27 25 25 25 25 25 26 27 29 30 31 33 34 35 35 35 35 34 33 33 31 29 29 29 29 29 28 30 29
44 44 44 43 41 39 36 32 29 27 27 27 26 23 21 21 22 23 23 23 24 25 25 27 28 31 34 35 35 35 35 34 33 31 31 29 27 25 25 25 22 27 25
45 44 42 40 38 34 31 29 26 25 25 23 21 20 19 20 20 22 21 22 22 22 23 25 27 28 30 33 34 35 35 34 33 31 29 29 26 26 25 22 21 20 20
43 42 40 38 35 32 28 25 23 23 22 20 20 20 18 20 21 18 17 16 17 19 20 22 22 24 25 27 29 31 32 32 31 29 27 27 27 27 24 24 21 20 19
42 41 38 35 32 28 25 22 21 21 20 20 18 18 17 18 16 14 14 13 12 12 12 12 14 15 16 20 25 28 29 29 28 27 25 25 24 26 25 25 23 20 19
41 39 36 33 29 25 23 21 20 19 19 17 16 15 15 15 13 9 6 7 8 10 10 11 12 14 18 20 25 26 27 28 26 26 24 22 25 25 25 23 21 19 18
40 38 33 30 26 23 20 18 18 17 15 13 13 13 13 11 7 4 4 6 8 9 11 13 12 15 18 21 24 26 25 25 27 26 23 23 26 26 23 21 20 18 16
38 36 31 27 23 20 18 17 16 14 13 11 11 11 9 5 3 1 3 6 8 10 13 13 14 16 19 20 23 25 27 28 27 26 25 25 24 23 21 19 18 17 17
36 32 28 23 19 17 15 15 13 12 10 10 10 9 6 4 4 2 5 8 11 12 14 15 16 19 20 23 25 26 27 27 28 26 24 23 21 20 18 18 18 17 16
33 30 24 19 16 14 13 13 12 10 9 8 8 7 5 2 1 3 7 10 12 13 14 16 17 19 21 23 25 26 26 26 25 24 22 21 19 18 17 17 16 15 15
30 24 21 16 13 12 12 12 11 10 8 7 7 6 1 1 2 5 8 10 12 14 15 16 17 19 21 23 25 25 24 23 23 22 20 18 18 17 17 16 15 16 16
25 21 18 15 13 13 12 12 10 9 7 6 5 1 1 1 3 5 9 11 13 15 16 17 18 20 22 24 25 24 23 22 21 20 18 18 18 17 17 16 16 16 15
22 20 17 15 14 14 12 11 9 8 5 4 2 1 2 2 5 7 10 12 14 15 17 19 20 22 24 25 24 22 21 20 19 19 18 18 17 17 17 17 16 15 14
21 19 17 16 14 14 12 11 9 7 4 2 0 2 3 5 7 9 12 14 16 18 19 21 23 23 23 23 21 20 19 18 18 18 17 18 18 18 17 16 15 14 12
20 19 18 16 15 14 13 11 9 6 3 1 2 4 5 7 9 11 13 15 17 18 19 21 21 21 20 20 19 19 18 17 17 18 18 18 18 17 16 15 14 13 11
20 19 18 17 16 14 13 11 9 6 3 0 3 5 7 9 11 12 14 15 16 17 18 19 19 19 19 19 18 18 17 17 18 18 18 18 17 16 15 14 13 12 11
Wind_Direction
318 317 315 315 313 312 310 308 305 302 297 292 287 283 278 274 270 265 261 257 254 251 248 245 245 243 242 241 239 239 237 239 241 240 241 242 243 244 245 245 246 247 248
318 316 315 315 314 312 311 309 308 305 302 297 291 285 280 276 271 267 263 258 254 252 249 246 244 243 242 240 240 239 237 238 238 240 240 241 242 243 244 244 245 246 249
318 316 315 314 313 312 310 309 307 305 303 299 295 290 284 278 273 269 265 260 255 252 249 247 243 242 242 240 239 239 238 238 237 237 239 239 240 242 242 243 245 247 250
318 316 315 314 313 311 310 308 306 304 302 299 295 291 286 281 275 270 265 261 257 253 249 247 244 241 241 240 238 238 237 237 236 235 236 238 239 241 241 241 243 244 247
317 316 315 314 312 311 309 307 305 303 301 298 295 290 286 281 276 272 266 261 257 254 250 248 244 241 240 239 238 237 237 235 237 234 235 236 238 240 239 241 242 243 248
317 316 315 314 313 311 309 307 305 302 301 298 295 290 285 279 276 272 268 262 258 254 251 248 245 243 240 239 239 237 236 235 235 237 235 236 237 238 239 238 239 242 245
317 316 315 314 313 312 310 308 305 302 300 298 296 291 285 279 275 271 267 262 258 254 250 247 245 243 241 238 237 237 236 235 234 234 237 235 235 236 238 239 239 241 243
317 316 315 314 313 311 310 308 305 302 300 298 296 292 286 281 276 271 267 262 258 254 250 247 245 243 239 238 237 236 235 235 234 235 236 237 236 238 239 240 237 237 237
317 316 315 314 312 311 310 308 305 302 300 298 296 291 286 283 279 274 268 262 257 253 249 247 244 241 239 237 236 237 235 234 233 234 234 236 236 237 236 236 234 232 238
317 316 315 314 312 311 310 308 305 302 299 298 296 291 287 284 282 277 271 263 256 251 248 245 243 240 238 236 236 235 234 232 231 231 232 234 232 234 235 237 234 233 238
317 316 315 314 312 311 309 307 305 302 300 299 297 293 286 282 281 278 272 264 257 252 247 244 241 239 237 235 235 233 230 229 227 225 225 226 224 229 233 235 229 227 226
318 317 315 314 313 311 310 307 304 303 302 302 301 297 289 285 284 280 272 264 258 251 247 243 242 239 236 234 233 230 226 223 220 220 218 220 222 222 223 215 225 217 218
319 318 317 316 315 313 311 308 305 305 305 304 302 299 293 292 291 284 273 265 257 249 246 245 243 240 236 233 230 224 220 217 214 215 217 219 217 210 203 205 204 205 207
321 320 320 318 316 314 312 309 306 307 306 304 303 301 296 297 295 284 272 260 253 250 250 245 238 232 229 223 216 213 208 205 204 207 206 204 203 200 202 202 203 198 199
322 321 320 319 316 314 312 309 308 308 305 305 304 305 303 305 299 286 271 258 245 232 222 208 201 200 198 192 188 186 186 187 188 188 191 195 199 201 199 196 196 201 202
323 323 321 318 317 314 312 309 311 309 310 307 307 308 310 308 302 288 262 233 212 192 189 189 185 179 176 174 174 174 177 180 184 184 183 184 182 179 182 187 189 189 191
324 323 321 318 316 313 311 311 313 315 315 311 313 316 318 319 317 280 215 178 176 179 175 169 169 171 172 170 172 173 177 178 174 172 172 170 171 174 177 181 185 188 192
326 324 321 318 315 313 311 312 313 313 314 314 321 324 323 342 5 100 172 173 168 158 158 155 154 155 157 163 166 166 164 165 167 167 166 165 168 173 177 180 185 188 188
329 327 324 320 316 313 312 313 313 312 310 311 318 324 323 315 315 257 180 168 164 156 152 148 146 144 146 148 150 154 157 159 161 164 165 167 171 174 178 181 182 183 187
332 331 329 326 322 319 318 318 316 314 310 309 316 320 320 318 329 153 159 160 162 161 157 155 152 153 152 153 155 154 155 157 161 164 167 169 173 176 176 177 180 184 186
337 336 335 333 330 326 323 322 317 314 307 306 314 317 307 19 121 155 162 163 165 166 164 163 163 163 162 161 160 161 161 162 164 166 169 172 174 175 177 179 179 177 175
342 342 342 340 336 333 330 327 323 317 306 305 314 289 72 117 130 147 157 160 163 165 166 165 161 161 162 162 162 161 162 165 168 170 173 174 174 175 176 175 174 174 176
347 347 346 345 342 338 338 334 330 324 311 305 300 175 141 137 140 144 151 155 155 157 160 161 158 157 157 159 162 164 165 167 171 173 173 174 175 175 174 173 174 176 179
351 351 349 347 347 345 342 339 337 333 326 319 209 163 147 141 140 137 144 147 148 148 151 153 154 155 157 160 163 164 166 168 171 174 175 174 172 172 173 174 176 179 184
355 353 351 348 347 345 344 342 341 336 330 317 167 157 148 146 145 142 143 146 147 149 150 154 157 159 162 164 165 167 168 169 171 171 170 171 171 172 174 177 180 183 186
356 355 354 352 350 348 346 344 343 339 335 192 157 156 150 149 147 148 149 150 152 154 155 158 160 162 163 165 167 168 169 169 169 169 169 171 172 174 177 179 181 185 189